Regional Weather Roundup
Issued by NWS

Home | Current Version | Previous Version | Text Only | Print | Product List | Glossary On
Versions: 1 2 3 4 5 6 7 8 9 10 11 12 13 14 15 16 17 18 19 20 21 22 23 24 25 26 27 28 29 30 31 32 33 34 35 36 37 38 39 40 41 42 43 44 45 46 47 48 49 50
000
ASUS42 KFFC 010110
RWRGA
WEATHER ROUNDUP FOR GEORGIA
NATIONAL WEATHER SERVICE PEACHTREE CITY GA
900 PM EDT FRI JUL 31 2015

NOTE: "FAIR" INDICATES FEW OR NO CLOUDS BELOW 12,000 FEET WITH NO
SIGNIFICANT WEATHER AND/OR OBSTRUCTIONS TO VISIBILITY.

* = USE WITH CAUTION. THE STATIONS MARKED WITH AN ASTERISK MAY NOT
REPORT WEATHER SUCH AS PRECIPITATION, FOG, OR THUNDER AND ARE NOT
QUALITY CONTROLLED BY NWS.

THE REMARK "TC" DENOTES TEMPERATURE READING IN DEGREES CELSIUS.

GAZ001>058-010200-
NORTH GEORGIA

CITY           SKY/WX    TMP DP  RH WIND       PRES   REMARKS
ATLANTA        MOCLDY    77  71  82 SW7       29.95R
ATHENS         PTCLDY    84  70  62 SW8       29.93R
CHAMBLEE       MOCLDY    85  66  53 NW10      29.95R
PEACHTREE CITY MOCLDY    79  73  82 SE5       29.96S
ROME           CLEAR     81  60  48 N6        29.96R
WEST ATLANTA   MOCLDY    84  64  50 NW6       29.94R
GAINESVILLE    MOCLDY    83  65  54 N8        29.98R
CARTERSVILLE   CLEAR     79  60  52 VRB3      29.96S


CITY           SKY/WX    TMP DP  RH WIND       PRES   REMARKS
DALTON*        CLEAR     77  61  57 N7        29.97S
LAWRENCEVILLE* MOCLDY    86  66  51 N7        29.92R
MARIETTA       MOCLDY    83  63  50 NW10      29.95S
KENNESAW*      PTCLDY    81  63  54 NW7       29.96S
BLAIRSVILLE*     N/A     72  39  30 CALM      30.03S
$$

GAZ059>098-102>109-010200-
CENTRAL GEORGIA

CITY           SKY/WX    TMP DP  RH WIND       PRES   REMARKS
AUGUSTA-BUSH   PTCLDY    82  72  71 S7        29.90R
AUGUSTA-DANIEL PTCLDY    84  72  67 S7        29.92R
COLUMBUS       CLOUDY    77  72  84 CALM      29.91F
MACON          CLOUDY    74  72  93 CALM      29.91R
ROBINS AFB     CLOUDY    75  74  96 CALM      29.91R


CITY           SKY/WX    TMP DP  RH WIND       PRES   REMARKS
LAGRANGE*      CLOUDY    82  80  95 W6        29.95R HX  94
SYLVANIA*      CLOUDY    77  76  96 CALM      29.94R
MILLEDGEVILLE* CLOUDY    77  72  83 CALM      29.91R
$$

GAZ099>101-110>166-010200-
SOUTH GEORGIA

CITY           SKY/WX    TMP DP  RH WIND       PRES   REMARKS
SAVANNAH       CLOUDY    77  75  93 CALM      29.94R
VALDOSTA       HVY RAIN  78  74  87 E6        29.91R HAZE
ALMA           CLOUDY    77  73  87 SE3       29.92S
ST SIMONS      CLOUDY    74  72  93 S8        29.92F
FT STEWART     CLOUDY    77  77 100 S2        29.90R
ALBANY         TSTM      76  73  91 E9        29.94R
HUNTER AFB     CLOUDY    79  77  94 NE3       29.91R
MOODY AFB      TSTM      75  73  94 E7        29.92R FOG
BRUNSWICK      CLOUDY    77  72  83 SW5       29.93F


CITY           SKY/WX    TMP DP  RH WIND       PRES   REMARKS
BAINBRIDGE*    PTCLDY    84  79  84 S6        29.89S HX  96
MOULTRIE*      CLOUDY    81  72  74 NE7       29.92R
VIDALIA*       CLOUDY    77  72  83 SW3       29.93R
WAYCROSS*      CLOUDY    77  77  98 SW7       29.87R
DOUGLAS*       CLOUDY    77  75  94 CALM      29.96R
$$


USA.gov is the U.S. government's official web portal to all federal, state and local government web resources and services.